Date String (YYYY-MM-DD hh:mm:ss) UTC,Instrument flags,Ambient pressure (hPa),Sample flow (lpm),Bypass flow (lpm),Sample temperature (°C),Ambient temperature (°C),ASC tube jacket temperature (°C),LED temperature (°C),Box temperature (°C),Sample RH (%),Mass concentration (μg/m³),Mass concentration (μg/m³)
DateTimeUTC,F1_M11,P_M11,Q1_M11,Q2_M11,T1_M11,T2_M11,T3_M11,T4_M11,T5_M11,U1_M11,X0_M11,X2_M11
2021-08-11 09:00:00,FlowAlarm;OPCInstrumentWarning,0827.9,5.00,0.00,29.2,27.4,00.0,38.5,31.0,14.7,0043.53,0031.89
2021-08-11 09:01:00,FlowAlarm;OPCInstrumentWarning,0827.9,4.99,0.00,29.2,27.6,00.0,38.5,31.1,13.8,0043.58,0031.84
2021-08-11 09:02:00,FlowAlarm;OPCInstrumentWarning,0827.9,5.00,0.00,29.2,27.8,00.0,38.5,31.1,14.4,0043.74,0031.81
2021-08-11 09:03:00,FlowAlarm;OPCInstrumentWarning,0828.0,5.01,0.00,29.2,28.0,00.0,38.5,31.2,13.2,0044.55,0031.72
2021-08-11 09:04:00,FlowAlarm;OPCInstrumentWarning,0828.0,4.99,0.00,29.3,28.1,00.0,38.5,31.2,13.2,0045.06,0031.60
2021-08-11 09:05:00,FlowAlarm;OPCInstrumentWarning,0828.0,4.99,0.00,29.3,28.3,00.0,38.5,31.3,13.6,0044.89,0031.45
2021-08-11 09:06:00,FlowAlarm;OPCInstrumentWarning,0828.1,5.01,0.00,29.3,28.4,00.0,38.5,31.3,13.5,0044.36,0031.39
2021-08-11 09:07:00,FlowAlarm;OPCInstrumentWarning,0828.1,5.00,0.00,29.4,28.4,00.0,38.5,31.4,13.6,0043.69,0031.32
2021-08-11 09:08:00,FlowAlarm;OPCInstrumentWarning,0828.1,5.00,0.00,29.4,28.5,00.0,38.5,31.4,14.4,0043.29,0031.35
2021-08-11 09:09:00,FlowAlarm;OPCInstrumentWarning,0828.2,5.00,0.00,29.5,28.6,00.0,38.6,31.5,14.1,0042.29,0031.39
2021-08-11 09:10:00,FlowAlarm;OPCInstrumentWarning,0828.2,5.01,0.00,29.5,28.7,00.0,38.6,31.5,14.1,0042.50,0031.41
2021-08-11 09:11:00,FlowAlarm;OPCInstrumentWarning,0828.2,5.00,0.00,29.5,28.7,00.0,38.6,31.5,14.5,0042.74,0031.66
2021-08-11 09:12:00,FlowAlarm;OPCInstrumentWarning,0828.1,5.00,0.00,29.6,28.8,00.0,38.6,31.6,14.7,0042.88,0031.91
2021-08-11 09:13:00,FlowAlarm;OPCInstrumentWarning,0828.2,5.01,0.00,29.6,28.8,00.0,38.7,31.6,13.5,0043.36,0031.95
2021-08-11 09:14:00,FlowAlarm;OPCInstrumentWarning,0828.1,5.00,0.00,29.7,28.9,00.0,38.7,31.6,13.7,0043.01,0032.11
2021-08-11 09:15:00,FlowAlarm;OPCInstrumentWarning,0828.2,4.99,0.00,29.7,28.9,00.0,38.7,31.7,13.7,0043.46,0032.41
2021-08-11 09:16:00,FlowAlarm;OPCInstrumentWarning,0828.2,5.02,0.00,29.7,29.0,00.0,38.7,31.7,14.1,0044.27,0032.70
2021-08-11 09:17:00,FlowAlarm;OPCInstrumentWarning,0828.1,4.99,0.00,29.8,29.0,00.0,38.8,31.7,14.4,0044.70,0033.02
2021-08-11 09:18:00,FlowAlarm;OPCInstrumentWarning,0828.2,5.00,0.00,29.8,29.1,00.0,38.8,31.8,14.5,0045.77,0033.32
2021-08-11 09:19:00,FlowAlarm;OPCInstrumentWarning,0828.2,5.02,0.00,29.8,29.1,00.0,38.8,31.8,14.8,0046.64,0033.58
2021-08-11 09:20:00,FlowAlarm;OPCInstrumentWarning,0828.1,4.99,0.00,29.9,29.1,00.0,38.8,31.8,15.0,0047.13,0033.82
2021-08-11 09:21:00,FlowAlarm;OPCInstrumentWarning,0828.1,4.99,0.00,29.9,29.2,00.0,38.9,31.9,15.0,0047.19,0034.04
2021-08-11 09:22:00,FlowAlarm;OPCInstrumentWarning,0828.2,5.00,0.00,29.9,28.5,00.0,38.9,31.7,14.6,0047.22,0034.04
2021-08-11 09:23:00,FlowAlarm;OPCInstrumentWarning,0828.2,5.00,0.00,29.8,26.8,00.0,38.9,31.2,14.6,0047.08,0034.01
2021-08-11 09:24:00,FlowAlarm;OPCInstrumentWarning,0828.3,5.00,0.00,29.6,26.5,00.0,38.8,31.1,14.8,0046.60,0034.21
2021-08-11 09:25:00,FlowAlarm;OPCInstrumentWarning,0828.2,5.01,0.00,29.5,26.8,00.0,38.8,31.2,14.9,0046.60,0034.33
2021-08-11 09:26:00,FlowAlarm;OPCInstrumentWarning,0828.3,4.99,0.00,29.5,27.2,00.0,38.8,31.2,14.9,0046.30,0034.43
2021-08-11 09:27:00,FlowAlarm;OPCInstrumentWarning,0828.2,4.99,0.00,29.4,27.5,00.0,38.8,31.2,14.9,0046.13,0034.55
2021-08-11 09:28:00,FlowAlarm;OPCInstrumentWarning,0828.2,5.00,0.00,29.4,27.8,00.0,38.7,31.3,15.0,0046.56,0034.56
2021-08-11 09:29:00,FlowAlarm;OPCInstrumentWarning,0828.2,5.01,0.00,29.5,28.0,00.0,38.7,31.4,15.0,0046.95,0034.64
2021-08-11 09:30:00,FlowAlarm;OPCInstrumentWarning,0828.3,5.00,0.00,29.5,28.2,00.0,38.7,31.4,15.0,0046.77,0034.70
2021-08-11 09:31:00,FlowAlarm;OPCInstrumentWarning,0828.4,4.99,0.00,29.5,28.3,00.0,38.7,31.5,15.0,0046.38,0034.67
2021-08-11 09:32:00,FlowAlarm;OPCInstrumentWarning,0828.2,5.00,0.00,29.5,28.5,00.0,38.7,31.5,15.3,0046.53,0034.70
2021-08-11 09:33:00,FlowAlarm;OPCInstrumentWarning,0828.2,5.00,0.00,29.6,28.6,00.0,38.7,31.5,15.0,0047.47,0034.88
2021-08-11 09:34:00,FlowAlarm;OPCInstrumentWarning,0828.2,4.99,0.00,29.6,28.6,00.0,38.8,31.6,14.9,0048.50,0035.05
2021-08-11 09:35:00,FlowAlarm;OPCInstrumentWarning,0828.4,5.01,0.00,29.6,28.7,00.0,38.8,31.6,15.0,0049.10,0035.20
2021-08-11 09:36:00,FlowAlarm;OPCInstrumentWarning,0828.3,5.01,0.00,29.7,28.8,00.0,38.8,31.6,15.0,0049.29,0035.34
2021-08-11 09:37:00,FlowAlarm;OPCInstrumentWarning,0828.3,5.00,0.00,29.7,28.9,00.0,38.8,31.7,15.1,0049.37,0035.47
2021-08-11 09:38:00,FlowAlarm;OPCInstrumentWarning,0828.4,5.01,0.00,29.7,28.9,00.0,38.8,31.7,15.1,0049.53,0035.64
2021-08-11 09:39:00,FlowAlarm;OPCInstrumentWarning,0828.2,5.00,0.00,29.8,29.0,00.0,38.8,31.7,15.1,0050.09,0035.85
2021-08-11 09:40:00,FlowAlarm;OPCInstrumentWarning,0828.2,4.99,0.00,29.8,29.0,00.0,38.9,31.8,15.2,0050.97,0035.98
2021-08-11 09:41:00,FlowAlarm;OPCInstrumentWarning,0828.2,5.01,0.00,29.8,29.1,00.0,38.9,31.8,15.1,0051.69,0036.11
2021-08-11 09:42:00,FlowAlarm;OPCInstrumentWarning,0828.2,4.99,0.00,29.9,29.1,00.0,38.9,31.8,15.0,0051.96,0036.34
2021-08-11 09:43:00,FlowAlarm;OPCInstrumentWarning,0828.4,5.00,0.00,29.9,29.2,00.0,38.9,31.9,14.7,0052.42,0036.58
2021-08-11 09:44:00,FlowAlarm;OPCInstrumentWarning,0828.3,5.00,0.00,29.9,29.0,00.0,39.0,31.8,15.1,0052.68,0036.70
2021-08-11 09:45:00,FlowAlarm;OPCInstrumentWarning,0828.3,4.98,0.00,29.9,27.3,00.0,39.0,31.4,15.2,0053.19,0036.79
2021-08-11 09:46:00,FlowAlarm;OPCInstrumentWarning,0828.4,5.02,0.00,29.7,26.5,00.0,38.9,31.2,15.0,0052.94,0036.86
2021-08-11 09:47:00,FlowAlarm;OPCInstrumentWarning,0828.3,5.01,0.00,29.6,26.7,00.0,38.9,31.2,14.9,0054.09,0036.87
2021-08-11 09:48:00,FlowAlarm;OPCInstrumentWarning,0828.3,5.00,0.00,29.5,27.0,00.0,38.9,31.2,14.8,0055.23,0036.91
2021-08-11 09:49:00,FlowAlarm;OPCInstrumentWarning,0828.3,4.99,0.00,29.5,27.4,00.0,38.8,31.3,14.9,0057.56,0036.95
2021-08-11 09:50:00,FlowAlarm;OPCInstrumentWarning,0828.3,5.00,0.00,29.5,27.7,00.0,38.8,31.3,15.5,0058.57,0036.90
2021-08-11 09:51:00,FlowAlarm;OPCInstrumentWarning,0828.3,5.00,0.00,29.5,28.0,00.0,38.8,31.4,15.6,0058.03,0036.89
2021-08-11 09:52:00,FlowAlarm;OPCInstrumentWarning,0828.3,5.00,0.00,29.5,28.2,00.0,38.8,31.4,15.6,0058.25,0036.94
2021-08-11 09:53:00,FlowAlarm;OPCInstrumentWarning,0828.3,4.99,0.00,29.5,28.3,00.0,38.8,31.5,15.1,0058.80,0036.97
2021-08-11 09:54:00,FlowAlarm;OPCInstrumentWarning,0828.3,5.00,0.00,29.6,28.5,00.0,38.8,31.5,14.2,0058.84,0036.96
2021-08-11 09:55:00,FlowAlarm;OPCInstrumentWarning,0828.4,5.00,0.00,29.6,28.6,00.0,38.8,31.6,13.8,0058.31,0036.76
2021-08-11 09:56:00,FlowAlarm;OPCInstrumentWarning,0828.3,5.00,0.00,29.6,28.7,00.0,38.8,31.6,14.0,0057.04,0036.60
2021-08-11 09:57:00,FlowAlarm;OPCInstrumentWarning,0828.3,4.99,0.00,29.7,28.8,00.0,38.8,31.6,14.0,0056.79,0036.45
2021-08-11 09:58:00,FlowAlarm;OPCInstrumentWarning,0828.3,5.01,0.00,29.7,28.8,00.0,38.8,31.7,14.1,0055.72,0036.44
2021-08-11 09:59:00,FlowAlarm;OPCInstrumentWarning,0828.3,5.01,0.00,29.7,28.9,00.0,38.8,31.7,13.7,0055.19,0036.38
